Torna al catalogo

STARLINK-4515

AttivoComunicazioniVLEO
NORAD 53397·PAYLOAD·🇺🇸 United States

Lanciato Aug 10, 2022 da Cape Canaveral Space Force Station

Loading…

Prossimi Passaggi (prossime 24 ore)

TLE

AggiornatoSource: CelesTrak SupGP

Epoca: Sep 14, 2026, 21:47 UTC

1 53397C 22097K   26257.90812500 -.00061232  00000+0 -17517-2 0  2579
2 53397  53.1604 348.2305 0001110  82.8640 192.0267 15.35433169    12

Traccia STARLINK-4515 in tempo reale con AllMySat

Download on the App Store